[[{"header":{"parameterUnit":"m.s-1","parameterCategory":2,"la1":30.2992,"la2":30.254,"lo1":-89.0895,"lo2":-89.0443,"dy":0.0025,"dx":0.0025,"nx":19,"ny":19,"refTime":"2026-04-21T09:00:00:Z","depth":"0","parameterNumber":2,"parameterNumberName":"U-component_of_CURRENTS"},"data":[0,0,0,-0.1648,-0.165,-0.1723,-0.1723,-0.1773,-0.1773,0,0,0,0,0,0,0,0,0,0,0,-0.1617,-0.1617,-0.1648,-0.165,-0.1723,-0.1723,-0.1773,-0.1773,0,0,0,0,0,0,0,0,0,0,0,-0.1616,-0.1617,-0.1618,-0.165,-0.1723,-0.1723,-0.1773,-0.1728,0,0,0,0,0,0,0,0,0,0,-0.1662,-0.1635,-0.1617,-0.1618,-0.1651,-0.1723,-0.1723,-0.1726,-0.1731,-0.1728,0,-0.1738,0,-0.176,-0.1776,-0.1776,0,0,0,-0.1648,-0.1631,-0.1658,-0.1618,-0.1651,-0.1723,-0.169,-0.1729,-0.1734,-0.1733,-0.1739,-0.1742,-0.1761,-0.1776,-0.1776,-0.1862,-0.1863,0,0,-0.1644,-0.1623,-0.1654,-0.1661,-0.1669,-0.1687,-0.1692,-0.1733,-0.1732,-0.174,-0.1743,-0.1762,-0.1776,-0.1777,-0.1861,-0.1862,0,0,0,-0.1634,-0.162,-0.1647,-0.1658,-0.1677,-0.169,-0.1695,-0.173,-0.1741,-0.1744,-0.1762,-0.1776,-0.1777,-0.1861,-0.1862,-0.1875,0,0,0,-0.1631,-0.1615,-0.1645,-0.1632,-0.1676,-0.1709,-0.1691,-0.1738,-0.1744,-0.1762,-0.1776,-0.1777,-0.186,-0.1861,-0.1873,-0.1865,0,0,0,-0.1614,-0.1613,-0.1622,-0.1631,-0.1665,-0.1709,-0.1723,-0.174,-0.1754,-0.1776,-0.1777,-0.1859,-0.1861,-0.1871,-0.1863,-0.1905,0,0,0,-0.1588,-0.1608,-0.1622,-0.1658,-0.1665,-0.1739,-0.1723,-0.1771,-0.1794,-0.1777,-0.186,-0.1862,-0.1871,-0.1861,-0.1903,-0.1943,-0.1955,0,0,-0.1602,-0.1609,-0.1635,-0.165,-0.1717,-0.1728,-0.1795,-0.1811,-0.1816,-0.1841,-0.1844,-0.1874,-0.1862,-0.1905,-0.2035,-0.2043,0,0,0,-0.1634,-0.1641,-0.167,-0.1708,-0.1766,-0.1805,-0.1834,-0.1852,-0.1884,-0.1838,-0.1903,-0.1895,-0.1921,-0.1943,-0.195,-0.1804,-0.1869,-0.1869,-0.1869,-0.1596,-0.1644,-0.1687,-0.1745,-0.1792,-0.186,-0.1896,-0.1924,-0.1923,-0.1947,-0.1928,-0.1996,-0.2021,-0.2027,-0.1876,-0.1961,-0.1961,-0.1961,-0.1961,-0.1602,-0.1622,-0.1684,-0.1738,-0.1799,-0.185,-0.1931,-0.1947,-0.2002,-0.1981,-0.2007,-0.1983,-0.2035,-0.1871,-0.1962,-0.1962,-0.1962,-0.1962,-0.1962,-0.156,-0.1576,-0.1616,-0.1692,-0.1754,-0.1833,-0.1894,-0.1948,-0.2001,-0.2029,-0.2069,-0.2069,-0.1905,-0.2047,-0.2048,-0.2048,-0.2048,-0.2048,-0.2048,-0.1492,-0.1537,-0.1567,-0.1649,-0.1688,-0.1757,-0.1871,-0.1934,-0.2042,-0.2087,-0.2088,-0.192,-0.2023,-0.1997,-0.2051,-0.205,-0.205,-0.205,-0.2049,-0.1429,-0.1455,-0.15,-0.1537,-0.1637,-0.1681,-0.1809,-0.1976,-0.2065,-0.2133,-0.1995,-0.2135,-0.2136,-0.2131,-0.2109,-0.2188,-0.2188,-0.2188,-0.2188,-0.1369,-0.1394,-0.1438,-0.1486,-0.1551,-0.164,-0.1748,-0.1929,-0.2018,-0.2008,-0.1967,-0.1926,-0.1927,-0.1911,-0.1911,-0.1883,-0.1902,-0.1902,-0.1901,-0.132,-0.1354,-0.1361,-0.1437,-0.1505,-0.1587,-0.168,-0.1808,-0.1893,-0.187,-0.1751,-0.1763,-0.1681,-0.1694,-0.1652,-0.1663,-0.1612,0,0]},{"header":{"parameterUnit":"m.s-1","parameterCategory":2,"la1":30.2992,"la2":30.254,"lo1":-89.0895,"lo2":-89.0443,"dy":0.0025,"dx":0.0025,"nx":19,"ny":19,"refTime":"2026-04-21T09:00:00:Z","depth":"0","parameterNumber":3,"parameterNumberName":"V-component_of_CURRENTS"},"data":[0,0,0,-0.0711,-0.0711,-0.0722,-0.0722,-0.0664,-0.0663,0,0,0,0,0,0,0,0,0,0,0,-0.0709,-0.071,-0.071,-0.0711,-0.0722,-0.0722,-0.0664,-0.0663,0,0,0,0,0,0,0,0,0,0,0,-0.0709,-0.071,-0.071,-0.0712,-0.0722,-0.0722,-0.0664,-0.067,0,0,0,0,0,0,0,0,0,0,-0.0666,-0.0669,-0.071,-0.071,-0.0712,-0.0722,-0.0722,-0.067,-0.0669,-0.0644,0,-0.0663,0,-0.0667,-0.0659,-0.0659,0,0,0,-0.0694,-0.0671,-0.0689,-0.0711,-0.0712,-0.0722,-0.0712,-0.067,-0.0669,-0.0642,-0.0663,-0.0661,-0.0666,-0.0659,-0.0659,-0.0674,-0.0675,0,0,-0.0694,-0.0689,-0.0691,-0.0689,-0.0736,-0.0712,-0.0713,-0.067,-0.0666,-0.0662,-0.066,-0.0665,-0.0659,-0.0658,-0.0673,-0.0674,0,0,0,-0.0703,-0.0689,-0.0709,-0.0691,-0.0702,-0.0713,-0.0714,-0.0668,-0.068,-0.0659,-0.0664,-0.0658,-0.0657,-0.0673,-0.0674,-0.0764,0,0,0,-0.0702,-0.0696,-0.0709,-0.0703,-0.0704,-0.0692,-0.0713,-0.0683,-0.0679,-0.0665,-0.0658,-0.0657,-0.0672,-0.0673,-0.076,-0.0809,0,0,0,-0.0705,-0.0695,-0.0708,-0.0704,-0.0718,-0.0693,-0.0702,-0.0682,-0.0682,-0.0659,-0.0657,-0.0672,-0.0673,-0.0756,-0.0803,-0.0823,0,0,0,-0.0684,-0.0734,-0.0708,-0.0762,-0.0718,-0.0762,-0.0702,-0.0712,-0.0701,-0.0658,-0.0672,-0.0674,-0.0755,-0.0799,-0.0819,-0.0828,-0.0845,0,0,-0.0743,-0.074,-0.0776,-0.0754,-0.0819,-0.0758,-0.0805,-0.0758,-0.0711,-0.0676,-0.0677,-0.0761,-0.0803,-0.0822,-0.0911,-0.0926,0,0,0,-0.0792,-0.0819,-0.0835,-0.0862,-0.0872,-0.0878,-0.0829,-0.0807,-0.0784,-0.0715,-0.0765,-0.0789,-0.0798,-0.0796,-0.0808,-0.0464,-0.068,-0.068,-0.068,-0.0834,-0.086,-0.0922,-0.0953,-0.0968,-0.0953,-0.0953,-0.0911,-0.0849,-0.0857,-0.0865,-0.0948,-0.0949,-0.0957,-0.0603,-0.0862,-0.0863,-0.0863,-0.0863,-0.093,-0.0976,-0.0989,-0.1062,-0.1061,-0.1081,-0.1057,-0.1023,-0.1012,-0.0955,-0.0958,-0.0896,-0.0975,-0.0592,-0.0869,-0.0868,-0.0867,-0.0867,-0.0866,-0.0965,-0.0997,-0.1037,-0.1117,-0.1162,-0.1158,-0.1209,-0.1168,-0.1097,-0.1115,-0.1069,-0.1067,-0.0725,-0.1103,-0.1103,-0.1103,-0.1104,-0.1104,-0.1104,-0.0987,-0.1034,-0.1102,-0.1177,-0.122,-0.1276,-0.1299,-0.1305,-0.125,-0.1177,-0.1176,-0.0713,-0.102,-0.1004,-0.1109,-0.1108,-0.1108,-0.1107,-0.1107,-0.1055,-0.1057,-0.1164,-0.1221,-0.1345,-0.1453,-0.1463,-0.1475,-0.143,-0.1402,-0.0808,-0.1191,-0.1157,-0.1146,-0.1133,-0.1265,-0.1265,-0.1265,-0.1265,-0.1071,-0.109,-0.1225,-0.1334,-0.1456,-0.1545,-0.1685,-0.1617,-0.1168,-0.0836,-0.0676,-0.0569,-0.0578,-0.0501,-0.0504,-0.0473,-0.0435,-0.0433,-0.0431,-0.1104,-0.1143,-0.1244,-0.1367,-0.1515,-0.1662,-0.1805,-0.1613,-0.0796,-0.0357,-0.019,-0.0225,-0.0025,-0.0067,0.0088,0.0055,0.0116,0,0]}],[{"header":{"parameterUnit":"m.s-1","parameterCategory":2,"la1":30.2992,"la2":30.254,"lo1":-89.0895,"lo2":-89.0443,"dy":0.0025,"dx":0.0025,"nx":19,"ny":19,"refTime":"2026-04-21T09:00:00:Z","depth":"2","parameterNumber":2,"parameterNumberName":"U-component_of_CURRENTS"},"data":[0,0,0,-0.1447,-0.1448,-0.1495,-0.1495,-0.1512,-0.1512,0,0,0,0,0,0,0,0,0,0,0,-0.1424,-0.1424,-0.1447,-0.1448,-0.1495,-0.1495,-0.1512,-0.1512,0,0,0,0,0,0,0,0,0,0,0,-0.1424,-0.1424,-0.1424,-0.1449,-0.1495,-0.1495,-0.1512,-0.1486,0,0,0,0,0,0,0,0,0,0,-0.1445,-0.143,-0.1424,-0.1424,-0.1449,-0.1495,-0.1495,-0.1485,-0.1488,-0.148,0,-0.1488,0,-0.1506,-0.1513,-0.1513,0,0,0,-0.1443,-0.1428,-0.1445,-0.1424,-0.1449,-0.1495,-0.1472,-0.1487,-0.1489,-0.1483,-0.1489,-0.149,-0.1506,-0.1513,-0.1513,-0.1553,-0.1554,0,0,-0.144,-0.1427,-0.1443,-0.1447,-0.1462,-0.1471,-0.1474,-0.1489,-0.1488,-0.1489,-0.1491,-0.1506,-0.1513,-0.1513,-0.1553,-0.1554,0,0,0,-0.1437,-0.1425,-0.1443,-0.1445,-0.146,-0.1472,-0.1476,-0.1487,-0.1494,-0.1491,-0.1507,-0.1513,-0.1513,-0.1553,-0.1553,-0.1589,0,0,0,-0.1435,-0.1424,-0.1441,-0.1434,-0.146,-0.1481,-0.1474,-0.1493,-0.1496,-0.1506,-0.1513,-0.1513,-0.1552,-0.1553,-0.1587,-0.1562,0,0,0,-0.1421,-0.1423,-0.1429,-0.1433,-0.1457,-0.1481,-0.1489,-0.1494,-0.1505,-0.1513,-0.1513,-0.1552,-0.1553,-0.1586,-0.1561,-0.1673,0,0,0,-0.1405,-0.1409,-0.1429,-0.1436,-0.1457,-0.1486,-0.1489,-0.152,-0.1531,-0.1513,-0.1552,-0.1553,-0.1585,-0.156,-0.167,-0.1718,-0.1734,0,0,-0.14,-0.1408,-0.1413,-0.1432,-0.1455,-0.1479,-0.1515,-0.1539,-0.1539,-0.1542,-0.1544,-0.1588,-0.1561,-0.1672,-0.1768,-0.1783,0,0,0,-0.1405,-0.1408,-0.1418,-0.1437,-0.1464,-0.1495,-0.1531,-0.1561,-0.1596,-0.1551,-0.1596,-0.1577,-0.1647,-0.167,-0.1682,-0.1557,-0.1557,-0.1557,-0.1557,-0.1378,-0.1398,-0.1401,-0.1429,-0.1455,-0.152,-0.1565,-0.161,-0.1609,-0.1645,-0.1614,-0.1723,-0.1747,-0.1757,-0.1644,-0.1644,-0.1644,-0.1644,-0.1644,-0.1348,-0.1341,-0.1378,-0.139,-0.144,-0.1479,-0.1574,-0.1618,-0.1711,-0.1664,-0.1734,-0.1713,-0.1772,-0.1647,-0.1647,-0.1646,-0.1646,-0.1646,-0.1645,-0.1303,-0.1302,-0.1323,-0.135,-0.1392,-0.1454,-0.1538,-0.1607,-0.1712,-0.177,-0.1851,-0.185,-0.1759,-0.183,-0.1831,-0.1831,-0.1831,-0.1832,-0.1832,-0.1243,-0.1265,-0.1271,-0.1309,-0.1335,-0.1378,-0.1514,-0.1628,-0.1802,-0.1871,-0.1874,-0.1786,-0.178,-0.1771,-0.1838,-0.1837,-0.1836,-0.1836,-0.1835,-0.1158,-0.1208,-0.121,-0.1233,-0.128,-0.1342,-0.148,-0.1755,-0.1908,-0.203,-0.1977,-0.1972,-0.1973,-0.1963,-0.1959,-0.2071,-0.2071,-0.2071,-0.2071,-0.1111,-0.1131,-0.1148,-0.1167,-0.1207,-0.1307,-0.1529,-0.1696,-0.1894,-0.1877,-0.1884,-0.1815,-0.1813,-0.1799,-0.1793,-0.1782,-0.1848,-0.1847,-0.1846,-0.1044,-0.108,-0.106,-0.111,-0.1164,-0.1289,-0.1502,-0.1545,-0.1563,-0.1822,-0.1691,-0.2086,-0.2005,-0.1993,-0.1985,-0.1971,-0.1958,0,0]},{"header":{"parameterUnit":"m.s-1","parameterCategory":2,"la1":30.2992,"la2":30.254,"lo1":-89.0895,"lo2":-89.0443,"dy":0.0025,"dx":0.0025,"nx":19,"ny":19,"refTime":"2026-04-21T09:00:00:Z","depth":"2","parameterNumber":3,"parameterNumberName":"V-component_of_CURRENTS"},"data":[0,0,0,-0.0216,-0.0216,-0.0155,-0.0154,-0.0005,-0.0004,0,0,0,0,0,0,0,0,0,0,0,-0.0253,-0.0254,-0.0216,-0.0215,-0.0155,-0.0154,-0.0005,-0.0004,0,0,0,0,0,0,0,0,0,0,0,-0.0253,-0.0254,-0.0255,-0.0215,-0.0155,-0.0154,-0.0006,-0.0061,0,0,0,0,0,0,0,0,0,0,-0.0125,-0.0176,-0.0253,-0.0255,-0.0215,-0.0155,-0.0154,-0.0064,-0.0057,-0.0023,0,-0.0054,0,-0.0033,0.0004,0.0005,0,0,0,-0.0181,-0.0182,-0.0177,-0.0255,-0.0215,-0.0155,-0.0172,-0.0061,-0.0053,-0.0014,-0.0052,-0.0046,-0.003,0.0005,0.0006,0.0099,0.0099,0,0,-0.0184,-0.0217,-0.0183,-0.0174,-0.0251,-0.0175,-0.0171,-0.0056,-0.0063,-0.0052,-0.0043,-0.0028,0.0006,0.0007,0.0099,0.0099,0,0,0,-0.0217,-0.022,-0.0217,-0.018,-0.0179,-0.0174,-0.0169,-0.0067,-0.0072,-0.0041,-0.0026,0.0007,0.0008,0.0099,0.0099,-0.0037,0,0,0,-0.0218,-0.0241,-0.022,-0.0234,-0.0183,-0.013,-0.0183,-0.008,-0.0066,-0.0027,0.0007,0.001,0.0099,0.0099,-0.0034,-0.0029,0,0,0,-0.0247,-0.0242,-0.0255,-0.0237,-0.0225,-0.0132,-0.0127,-0.0076,-0.0057,0.0005,0.001,0.0099,0.0099,-0.0031,-0.0025,-0.0173,0,0,0,-0.0252,-0.0282,-0.0257,-0.0271,-0.0227,-0.0173,-0.0128,-0.0089,-0.0045,0.0007,0.0099,0.0099,-0.003,-0.0023,-0.0168,-0.0101,-0.0116,0,0,-0.0284,-0.0287,-0.0289,-0.0264,-0.0249,-0.0176,-0.0116,-0.006,-0.0024,0.0072,0.0074,-0.0035,-0.0025,-0.0172,-0.009,-0.0106,0,0,0,-0.0292,-0.0318,-0.0305,-0.0293,-0.0233,-0.0169,-0.0092,-0.0074,-0.0049,-0.0003,0.0008,0.0021,-0.007,-0.0018,-0.003,0.01,0.01,0.01,0.01,-0.0393,-0.0349,-0.0343,-0.0291,-0.0256,-0.0156,-0.012,-0.0071,-0.0049,-0.008,-0.0063,-0.0213,-0.0155,-0.0164,-0.0062,-0.0063,-0.0063,-0.0063,-0.0064,-0.0428,-0.0415,-0.0366,-0.0367,-0.029,-0.0254,-0.015,-0.0152,-0.0174,-0.0118,-0.0206,-0.0124,-0.0186,-0.0074,-0.0072,-0.007,-0.0069,-0.0069,-0.0068,-0.0474,-0.0458,-0.0473,-0.0448,-0.044,-0.0351,-0.0354,-0.0283,-0.0292,-0.0335,-0.0358,-0.0354,-0.0331,-0.0458,-0.0458,-0.0459,-0.046,-0.046,-0.046,-0.0513,-0.0508,-0.0555,-0.0549,-0.0584,-0.057,-0.0502,-0.0507,-0.049,-0.0443,-0.0444,-0.0345,-0.0333,-0.0351,-0.047,-0.0469,-0.0467,-0.0466,-0.0466,-0.0536,-0.0609,-0.0648,-0.0701,-0.0738,-0.0803,-0.0731,-0.0732,-0.0734,-0.0751,-0.052,-0.0515,-0.0468,-0.0453,-0.0472,-0.0616,-0.0616,-0.0616,-0.0616,-0.0596,-0.0613,-0.0725,-0.08,-0.085,-0.0894,-0.1004,-0.082,-0.0652,-0.0416,-0.0424,-0.0298,-0.0297,-0.0231,-0.0222,-0.0231,-0.0314,-0.0313,-0.0312,-0.0607,-0.0663,-0.0734,-0.0833,-0.0925,-0.1009,-0.1119,-0.0835,-0.0303,-0.0295,-0.0323,-0.0605,-0.0435,-0.0428,-0.0333,-0.0316,-0.0334,0,0]}],[{"header":{"parameterUnit":"m.s-1","parameterCategory":2,"la1":30.2992,"la2":30.254,"lo1":-89.0895,"lo2":-89.0443,"dy":0.0025,"dx":0.0025,"nx":19,"ny":19,"refTime":"2026-04-21T09:00:00:Z","depth":"4","parameterNumber":2,"parameterNumberName":"U-component_of_CURRENTS"},"data":[0,0,0,-0.0774,-0.0776,-0.0844,-0.0844,-0.0869,-0.0869,0,0,0,0,0,0,0,0,0,0,0,-0.0749,-0.075,-0.0774,-0.0776,-0.0844,-0.0844,-0.0869,-0.0869,0,0,0,0,0,0,0,0,0,0,0,-0.0749,-0.075,-0.0751,-0.0776,-0.0844,-0.0844,-0.0869,-0.083,0,0,0,0,0,0,0,0,0,0,-0.077,-0.0751,-0.0749,-0.0751,-0.0777,-0.0844,-0.0844,-0.0829,-0.0832,-0.0824,0,-0.0847,0,-0.0864,-0.087,-0.087,0,0,0,-0.0763,-0.0748,-0.0779,-0.0751,-0.0778,-0.0844,-0.081,-0.0831,-0.0835,-0.0829,-0.0848,-0.0849,-0.0864,-0.0871,-0.0871,-0.0903,-0.0903,0,0,-0.076,-0.0745,-0.0777,-0.0782,-0.081,-0.0808,-0.0812,-0.0834,-0.0836,-0.0848,-0.085,-0.0865,-0.0871,-0.0871,-0.0903,-0.0903,0,0,0,-0.0757,-0.0742,-0.0774,-0.0781,-0.0801,-0.081,-0.0815,-0.0834,-0.0849,-0.085,-0.0865,-0.0871,-0.0871,-0.0903,-0.0903,-0.0946,0,0,0,-0.0754,-0.0742,-0.0772,-0.0761,-0.0802,-0.0825,-0.0814,-0.0848,-0.0851,-0.0865,-0.0871,-0.0871,-0.0903,-0.0903,-0.0945,-0.0963,0,0,0,-0.0743,-0.074,-0.0756,-0.0761,-0.0798,-0.0826,-0.0841,-0.0849,-0.086,-0.087,-0.0871,-0.0902,-0.0903,-0.0943,-0.096,-0.1009,0,0,0,-0.0714,-0.0738,-0.0756,-0.0783,-0.0798,-0.0838,-0.0841,-0.0863,-0.0873,-0.0871,-0.0903,-0.0903,-0.0943,-0.0959,-0.1007,-0.0847,0,0,0,-0.0727,-0.0739,-0.0755,-0.0773,-0.0805,-0.0826,-0.0862,-0.0877,-0.0877,-0.0888,-0.089,-0.0945,-0.096,-0.1009,-0.0877,0,0,0,0,-0.0747,-0.0759,-0.0771,-0.0797,-0.0828,-0.0858,-0.088,-0.0899,-0.0927,-0.0889,-0.0943,-0.0951,-0.098,-0.088,-0.0906,-0.0905,-0.0905,-0.0905,-0.0905,-0.0719,-0.0747,-0.0766,-0.0804,-0.0831,-0.088,-0.0917,-0.0946,-0.0942,-0.0965,-0.0985,-0.1048,-0.0942,-0.0982,-0.0983,-0.0983,-0.0983,-0.0983,-0.0983,-0.0715,-0.072,-0.076,-0.0788,-0.0829,-0.0861,-0.0941,-0.0969,-0.1052,-0.1023,-0.105,-0.0929,-0.0987,-0.0987,-0.0986,-0.0985,-0.0985,-0.0985,-0.0985,-0.0672,-0.0681,-0.0709,-0.0742,-0.0785,-0.0842,-0.0909,-0.1001,-0.1071,-0.1124,-0.1027,-0.1085,-0.1084,-0.1144,-0.1145,-0.1145,-0.1145,-0.1145,-0.1146,-0.0608,-0.0643,-0.0646,-0.0691,-0.0697,-0.0751,-0.0896,-0.0959,-0.1067,-0.1061,-0.1143,-0.1102,-0.1097,-0.1094,-0.115,-0.1149,-0.1149,-0.1148,-0.1148,-0.0554,-0.0569,-0.0566,-0.0567,-0.059,-0.0632,-0.0772,-0.0901,-0.0979,-0.1014,-0.103,-0.1035,-0.1009,-0.1007,-0.0999,-0.103,-0.1028,-0.1026,0,-0.0499,-0.0513,-0.0496,-0.0478,-0.0471,-0.0558,-0.0614,-0.0727,-0.0877,-0.0855,-0.098,-0.0994,-0.0997,-0.0961,-0.0956,-0.0942,0,0,0,-0.0454,-0.046,-0.0424,-0.0426,-0.0411,-0.0512,-0.0633,-0.0668,-0.084,-0.0875,-0.0981,-0.0993,-0.1024,-0.1164,-0.1136,-0.113,-0.1124,0,0]},{"header":{"parameterUnit":"m.s-1","parameterCategory":2,"la1":30.2992,"la2":30.254,"lo1":-89.0895,"lo2":-89.0443,"dy":0.0025,"dx":0.0025,"nx":19,"ny":19,"refTime":"2026-04-21T09:00:00:Z","depth":"4","parameterNumber":3,"parameterNumberName":"V-component_of_CURRENTS"},"data":[0,0,0,0.0414,0.0416,0.0501,0.0502,0.0585,0.0585,0,0,0,0,0,0,0,0,0,0,0,0.0391,0.0391,0.0414,0.0416,0.0501,0.0502,0.0585,0.0585,0,0,0,0,0,0,0,0,0,0,0,0.039,0.0391,0.0392,0.0416,0.0501,0.0502,0.0584,0.0529,0,0,0,0,0,0,0,0,0,0,0.0451,0.0425,0.0391,0.0392,0.0417,0.0501,0.0502,0.0527,0.0533,0.0535,0,0.0547,0,0.056,0.0589,0.0589,0,0,0,0.0428,0.042,0.0444,0.0392,0.0417,0.0501,0.0466,0.0531,0.0537,0.0542,0.0548,0.0552,0.0561,0.0589,0.059,0.0643,0.0643,0,0,0.0423,0.0407,0.0439,0.0448,0.0437,0.0463,0.0468,0.0535,0.0539,0.0549,0.0554,0.0563,0.059,0.059,0.0643,0.0643,0,0,0,0.0402,0.0403,0.0426,0.0444,0.0457,0.0465,0.0472,0.0537,0.0545,0.0555,0.0564,0.059,0.0591,0.0643,0.0643,0.0593,0,0,0,0.0399,0.039,0.0424,0.0415,0.0456,0.05,0.0472,0.0541,0.0548,0.0563,0.059,0.0591,0.0643,0.0643,0.0594,0.0546,0,0,0,0.0387,0.0388,0.0398,0.0414,0.0445,0.0499,0.0512,0.0543,0.0553,0.0589,0.0592,0.0643,0.0643,0.0595,0.0549,0.0573,0,0,0,0.0368,0.0381,0.0398,0.0415,0.0444,0.0486,0.0512,0.0552,0.0582,0.0591,0.0643,0.0643,0.0595,0.055,0.0574,0.0502,0,0,0,0.0373,0.0381,0.0391,0.0408,0.0429,0.0476,0.0497,0.0548,0.0588,0.0621,0.0623,0.0594,0.0549,0.0573,0.0525,0,0,0,0,0.0385,0.0389,0.0401,0.0417,0.0451,0.0455,0.0519,0.0548,0.0593,0.0606,0.0616,0.0589,0.0606,0.0568,0.0645,0.0645,0.0645,0.0645,0.0645,0.0361,0.0378,0.0382,0.04,0.0415,0.0455,0.0475,0.0525,0.0576,0.0593,0.0565,0.0567,0.0526,0.06,0.06,0.0599,0.0599,0.0599,0.0599,0.0352,0.0353,0.0352,0.0364,0.0363,0.038,0.0418,0.0458,0.0515,0.0545,0.0566,0.0537,0.0595,0.0595,0.0596,0.0597,0.0597,0.0597,0.0597,0.0336,0.0336,0.0343,0.0337,0.0312,0.0321,0.0307,0.0357,0.0451,0.0465,0.0477,0.0544,0.0531,0.0501,0.0501,0.0501,0.0501,0.0501,0.0501,0.0321,0.0323,0.032,0.0305,0.0283,0.0243,0.0251,0.0281,0.0362,0.04,0.0461,0.0535,0.0538,0.0527,0.0499,0.0499,0.0499,0.05,0.05,0.0317,0.0318,0.031,0.0294,0.0235,0.0188,0.0184,0.0216,0.0268,0.0321,0.0389,0.0395,0.0411,0.0417,0.0402,0.0336,0.0335,0.0334,0,0.0307,0.0309,0.03,0.0268,0.0202,0.0153,0.0135,0.0164,0.0262,0.0258,0.0321,0.0397,0.0402,0.042,0.0424,0.0406,0,0,0,0.0298,0.0296,0.0292,0.027,0.0189,0.0132,0.0123,0.014,0.0229,0.024,0.0308,0.0315,0.04,0.0494,0.0533,0.0536,0.0521,0,0]}]]